Baton Rouge, LA

7:54 AM CST on December 17, 2017 (GMT -0600)
Baton Rouge Metro-Ryan

Weather History for KBTR - April, 2014

Change the Weather History Date:

Sunday, April 13, 2014

  Actual Average Record
Temperature  
Mean Temperature 77 °F 67 °F  
Max Temperature 85 °F 79 °F 88 °F (1954)
Min Temperature 69 °F 56 °F 31 °F (1940)
Degree Days  
Heating Degree Days 0 2  
Month to date heating degree days 18 34  
Since 1 July heating degree days 1945 1536  
Cooling Degree Days 12 4  
Month to date cooling degree days 54 46  
Year to date cooling degree days 100 135  
Growing Degree Days 26 (Base 50)    
Moisture  
Dew Point 64 °F    
Average Humidity 67    
Maximum Humidity 90    
Minimum Humidity 44    
Precipitation  
Precipitation 0.01 in 0.15 in 4.53 in (1969)
Month to date precipitation 2.91 2.02  
Year to date precipitation 15.40 17.19  
Snow  
Snow 0.00 in - - ()
Month to date snowfall 0.0  
Since 1 July snowfall 0.4  
Snow Depth 0.00 in    
Sea Level Pressure  
Sea Level Pressure 29.95 in    
Wind  
Wind Speed 12 mph (SSE)    
Max Wind Speed 23 mph    
Max Gust Speed 29 mph    
Visibility 9 miles    
Events Rain    
T = Trace of Precipitation, MM = Missing Value Source: NWS Daily Summary

Daily Weather History Graph

Daily Weather History Graph

Search for Another Location

Airport or City:

Trip Planner

Search our weather history database for the weather conditions in past years. The results will help you decide how hot, cold, wet, or windy it might be!

Date:

Astronomy

Apr. 13, 2014 Rise Set
Actual Time 6:39 AM CDT 7:31 PM CDT
Civil Twilight 6:14 AM CDT 7:55 PM CDT
Nautical Twilight 5:45 AM CDT 8:24 PM CDT
Astronomical Twilight 5:16 AM CDT 8:54 PM CDT
Moon 6:14 PM CDT (4/13) 5:31 AM CDT (4/13)
Length of Visible Light 13h 40m
Length of Day
12h 51m
Waxing Gibbous, 97% of the Moon is Illuminated
Apr 13
Waxing Gibbous
Apr 15
Full
Apr 22
Last Quarter
Apr 29
New
May 6
First Quarter

Hourly Weather History & Observations

Time (CDT) Temp. Heat Index Dew Point Humidity Pressure Visibility Wind Dir Wind Speed Gust Speed Precip Events Conditions
12:53 AM 70.0 °F - 61.0 °F 73% 30.01 in 10.0 mi SE 9.2 mph - N/A   Unknown
1:53 AM 70.0 °F - 62.1 °F 76% 30.00 in 10.0 mi SSE 9.2 mph - N/A   Unknown
2:53 AM 69.1 °F - 62.1 °F 78% 29.99 in 10.0 mi SSE 8.1 mph - N/A   Unknown
3:53 AM 69.1 °F - 63.0 °F 81% 29.97 in 10.0 mi SSE 5.8 mph - N/A   Unknown
4:53 AM 69.1 °F - 64.0 °F 84% 29.96 in 10.0 mi SE 5.8 mph - N/A   Unknown
5:53 AM 70.0 °F - 64.9 °F 84% 29.97 in 9.0 mi SE 8.1 mph - N/A   Mostly Cloudy
6:53 AM 69.1 °F - 64.9 °F 87% 29.98 in 7.0 mi ESE 5.8 mph - N/A   Overcast
7:40 AM 70.0 °F - 66.0 °F 87% 29.98 in 6.0 mi ESE 8.1 mph - N/A   Overcast
7:53 AM 70.0 °F - 66.0 °F 87% 29.98 in 6.0 mi ESE 8.1 mph - N/A   Overcast
8:53 AM 72.0 °F - 66.9 °F 84% 30.00 in 8.0 mi SSE 8.1 mph - N/A   Overcast
9:00 AM 72.0 °F - 66.9 °F 84% 30.00 in 8.0 mi SSE 9.2 mph - N/A   Overcast
9:53 AM 75.9 °F - 66.9 °F 74% 30.01 in 10.0 mi SSE 16.1 mph - N/A   Overcast
10:00 AM 77.0 °F - 68.0 °F 74% 30.01 in 10.0 mi SSE 12.7 mph - N/A   Unknown
10:49 AM 78.8 °F - 66.2 °F 65% 30.01 in 10.0 mi South 11.5 mph - N/A   Mostly Cloudy
10:53 AM 79.0 °F - 66.0 °F 64% 30.01 in 10.0 mi SSE 13.8 mph - N/A   Mostly Cloudy
11:53 AM 82.0 °F 83.4 °F 64.0 °F 54% 30.00 in 10.0 mi South 18.4 mph - N/A   Mostly Cloudy
12:53 PM 82.9 °F 83.7 °F 62.1 °F 49% 29.97 in 10.0 mi SSE 16.1 mph 24.2 mph N/A   Mostly Cloudy
1:53 PM 84.9 °F 85.0 °F 61.0 °F 44% 29.94 in 10.0 mi South 19.6 mph 26.5 mph N/A   Mostly Cloudy
2:53 PM 84.9 °F 85.0 °F 61.0 °F 44% 29.93 in 10.0 mi South 20.7 mph 26.5 mph N/A   Mostly Cloudy
3:53 PM 82.0 °F 82.1 °F 59.0 °F 45% 29.90 in 10.0 mi SSE 18.4 mph 26.5 mph N/A   Unknown
4:53 PM 82.0 °F 82.7 °F 61.0 °F 49% 29.88 in 10.0 mi SSE 15.0 mph - N/A   Scattered Clouds
5:53 PM 81.0 °F 81.6 °F 60.1 °F 49% 29.88 in 10.0 mi SE 13.8 mph 21.9 mph N/A   Mostly Cloudy
6:53 PM 79.0 °F - 61.0 °F 54% 29.88 in 10.0 mi SE 13.8 mph - N/A   Scattered Clouds
7:53 PM 77.0 °F - 62.1 °F 60% 29.88 in 10.0 mi SSE 13.8 mph - N/A   Partly Cloudy
8:53 PM 75.0 °F - 63.0 °F 66% 29.87 in 10.0 mi SE 11.5 mph - N/A   Clear
9:53 PM 72.0 °F - 66.0 °F 81% 29.88 in 10.0 mi SE 10.4 mph - 0.01 in Rain Light Rain
10:53 PM 73.0 °F - 66.0 °F 79% 29.87 in 10.0 mi SE 8.1 mph - 0.00 in   Partly Cloudy
11:53 PM 72.0 °F - 66.0 °F 81% 29.83 in 10.0 mi SE 11.5 mph - N/A   Scattered Clouds